Location: Bluff Heights
(33.7692°N, 118.1592°W)
Time: 00:24:12
(UTC+00:00)

Tiros 1 - Pass Details

Date: 25 July 2021
Orbit: 630 x 663 km, 48.4° (Epoch: 20 September)

Event Time Altitude Azimuth Distance (km) Brightness Sun altitude
Rises 03:47:26 0° 229° (SW) 2,968 10.8 -9.8°
Reaches altitude 10° 03:49:47 10° 229° (SW) 2,055 9.9 -10.2°
Maximum altitude 03:54:32 86° 140° (SE) 655 7.1 -11.0°
Drops below altitude 10° 03:59:15 10° 52° (NE) 2,043 9.5 -11.8°
Sets 04:01:34 0° 52° (NE) 2,949 10.4 -12.2°
